Fairfield, NJ

8:57 PM EST on December 04, 2016 (GMT -0500)
Essex County

Weather History for KCDW - June, 2012

Change the Weather History Date:

Saturday, June 9, 2012

  Actual Average Record
Temperature  
Mean Temperature 71 °F -  
Max Temperature 81 °F 80 °F 98 °F (2008)
Min Temperature 62 °F 55 °F 41 °F (1980)
Cooling Degree Days 6    
Growing Degree Days 21 (Base 50)    
Moisture  
Dew Point 56 °F    
Average Humidity 61    
Maximum Humidity 75    
Minimum Humidity 43    
Precipitation  
Precipitation 0.00 in - - ()
Sea Level Pressure  
Sea Level Pressure 29.93 in    
Wind  
Wind Speed 1 mph (West)    
Max Wind Speed 9 mph    
Max Gust Speed -    
Visibility 10 miles    
Events Rain    
Averages and records for this station are not official NWS values.
T = Trace of Precipitation, MM = Missing Value Source: NWS Daily Summary

Daily Weather History Graph

Daily Weather History Graph

Search for Another Location

Airport or City:

Trip Planner

Search our weather history database for the weather conditions in past years. The results will help you decide how hot, cold, wet, or windy it might be!

Date:

Astronomy

Jun. 09, 2012 Rise Set
Actual Time 5:25 AM EDT 8:28 PM EDT
Civil Twilight 4:51 AM EDT 9:01 PM EDT
Nautical Twilight 4:09 AM EDT 9:43 PM EDT
Astronomical Twilight 3:19 AM EDT 10:33 PM EDT
Moon No Moon Rise 11:09 AM EDT (6/9)
Length of Visible Light 16h 09m
Length of Day
15h 02m
Waning Gibbous, 68% of the Moon is Illuminated
Jun 9
Waning Gibbous
Jun 11
Last Quarter
Jun 19
New
Jun 26
First Quarter
Jul 3
Full

Hourly Weather History & Observations

Time (EDT) Temp. Heat Index Dew Point Humidity Pressure Visibility Wind Dir Wind Speed Gust Speed Precip Events Conditions
12:53 AM 64.0 °F - 55.9 °F 75% 29.89 in 10.0 mi Calm Calm - N/A   Clear
1:53 AM 64.0 °F - 55.0 °F 73% 29.89 in 10.0 mi Calm Calm - N/A   Clear
3:53 AM 64.0 °F - 54.0 °F 70% 29.89 in 10.0 mi Calm Calm - N/A   Clear
4:53 AM 64.0 °F - 53.1 °F 67% 29.90 in 10.0 mi Calm Calm - N/A   Clear
5:53 AM 62.1 °F - 53.1 °F 72% 29.91 in 10.0 mi Calm Calm - N/A   Clear
6:53 AM 64.0 °F - 55.0 °F 73% 29.92 in 10.0 mi Calm Calm - N/A   Clear
7:53 AM 66.9 °F - 54.0 °F 63% 29.94 in 10.0 mi Calm Calm - N/A   Clear
8:53 AM 66.9 °F - 55.0 °F 66% 29.95 in 10.0 mi Calm Calm - N/A   Overcast
9:53 AM 66.9 °F - 54.0 °F 63% 29.96 in 10.0 mi Calm Calm - N/A   Overcast
10:53 AM 70.0 °F - 55.0 °F 59% 29.96 in 10.0 mi South 4.6 mph - N/A   Mostly Cloudy
11:53 AM 73.9 °F - 54.0 °F 50% 29.94 in 10.0 mi Calm Calm - N/A   Scattered Clouds
12:53 PM 73.0 °F - 55.9 °F 55% 29.95 in 10.0 mi Calm Calm - 0.00 in Rain Light Rain
1:53 PM 75.9 °F - 57.9 °F 54% 29.93 in 10.0 mi Calm Calm - 0.00 in   Mostly Cloudy
2:53 PM 77.0 °F - 57.0 °F 50% 29.92 in 10.0 mi SW 4.6 mph - N/A   Partly Cloudy
3:53 PM 80.1 °F 80.2 °F 55.9 °F 43% 29.91 in 10.0 mi Variable 6.9 mph - N/A   Clear
4:53 PM 79.0 °F - 57.0 °F 47% 29.92 in 10.0 mi WNW 9.2 mph - N/A   Mostly Cloudy
5:53 PM 77.0 °F - 59.0 °F 54% 29.93 in 10.0 mi WNW 6.9 mph - N/A   Overcast
6:53 PM 77.0 °F - 59.0 °F 54% 29.92 in 10.0 mi WNW 4.6 mph - N/A   Clear
7:53 PM 75.9 °F - 59.0 °F 56% 29.93 in 10.0 mi NW 3.5 mph - N/A   Scattered Clouds
8:53 PM 73.0 °F - 59.0 °F 61% 29.95 in 10.0 mi Calm Calm - N/A   Clear
9:53 PM 72.0 °F - 57.9 °F 61% 29.98 in 10.0 mi Calm Calm - N/A   Clear
10:53 PM 68.0 °F - 59.0 °F 73% 30.00 in 10.0 mi Calm Calm - N/A   Mostly Cloudy
11:53 PM 69.1 °F - 59.0 °F 70% 30.00 in 10.0 mi Calm Calm - N/A   Overcast